Regional Weather Roundup
Issued by NWS

Home | Current Version | Previous Version | Text Only | Print | Product List | Glossary On
Versions: 1 2 3 4 5 6 7 8 9 10 11 12 13 14 15 16 17 18 19 20 21 22 23 24 25 26 27 28 29 30 31 32 33 34 35 36 37 38 39 40 41 42 43 44 45 46 47 48 49 50
000
ASUS43 KLSX 220107
RWRMO

WEATHER SUMMARY FOR MISSOURI
NATIONAL WEATHER SERVICE SPRINGFIELD MO
800 PM CDT TUE OCT 21 2014

NOTE: "FAIR" INDICATES FEW OR NO CLOUDS BELOW 12,000 FEET WITH NO
       SIGNIFICANT WEATHER AND/OR OBSTRUCTIONS TO VISIBILITY.
       CURRENT SKY AND/OR WEATHER CONDITIONS ARE NOT AVAILABLE FOR
       CHILLICOTHE AND FARMINGTON.

MOZ001>031-035>038-043-044-053-054-220200-
...NORTHERN AND WESTERN MISSOURI...

CITY           SKY/WX    TMP DP  RH WIND       PRES   REMARKS
KANSAS CTY INT CLEAR     63  44  50 E9        30.08S
KANSAS C DTWN  CLEAR     64  45  49 E6        30.07S
LEE`S SUMMIT   CLEAR     63  43  48 E6        30.10R
ST JOSEPH      CLEAR     61  43  51 SE8       30.08R
CHILLICOTHE      N/A     61  46  57 E5        30.13R
KIRKSVILLE     CLEAR     53  44  71 NE6       30.16R

$$
MOZ066>068-077>081-088>096-101>105-220200-
...SOUTHWEST MISSOURI...

CITY           SKY/WX    TMP DP  RH WIND       PRES   REMARKS
SPRINGFIELD    CLEAR     56  47  71 CALM      30.09R
JOPLIN         CLEAR     58  51  78 CALM      30.08R

$$
MOZ032>034-039>042-045>050-055>058-069>072-220200-
...CENTRAL MISSOURI...

CITY           SKY/WX    TMP DP  RH WIND       PRES   REMARKS
COLUMBIA       CLEAR     56  45  66 E7        30.13R
JEFFERSON CITY CLEAR     63  44  50 NE9       30.12R
ROLLA          CLEAR     57  45  64 E6        30.11R
SEDALIA        CLEAR     60  45  57 E5        30.12R
WHITEMAN AFB   CLEAR     58  45  63 E5        30.10R
OSAGE BEACH    CLEAR     57  45  62 CALM      30.11R

$$
MOZ051-052-059>065-220200-
...EAST CENTRAL MISSOURI...

CITY           SKY/WX    TMP DP  RH WIND       PRES   REMARKS
ST LOUIS INTL  CLEAR     59  42  53 NE8       30.16R
SPIRIT OF STL  CLEAR     50  45  83 CALM      30.15R
ST CHARLES     CLEAR     55  42  61 NE8       30.16R

$$
MOZ072>076-082>087-097>100-106>115-220200-
...SOUTH CENTRAL AND SOUTHEAST MISSOURI...

CITY           SKY/WX    TMP DP  RH WIND       PRES   REMARKS
CAPE GIRARDEAU CLEAR     57  45  64 NE6       30.12R
FARMINGTON     CLEAR     55  43  62 N7        30.15R
POPLAR BLUFF   CLEAR     59  47  64 NE5       30.09R
WEST PLAINS    CLEAR     55  46  71 CALM      30.12R

$$



USA.gov is the U.S. government's official web portal to all federal, state and local government web resources and services.